Providence, RI

8:19 PM EST on November 17, 2017 (GMT -0500)
Green State

Weather History for KPVD - September, 2014

Change the Weather History Date:

Monday, September 8, 2014

  Actual Average Record
Temperature  
Mean Temperature 68 °F 68 °F  
Max Temperature 78 °F 77 °F 97 °F (2015)
Min Temperature 57 °F 58 °F 44 °F (1952)
Degree Days  
Heating Degree Days 0 1  
Month to date heating degree days 0 8  
Since 1 July heating degree days 0 17  
Cooling Degree Days 3 4  
Month to date cooling degree days 88 36  
Year to date cooling degree days 670 692  
Growing Degree Days 18 (Base 50)    
Moisture  
Dew Point 54 °F    
Average Humidity 67    
Maximum Humidity 90    
Minimum Humidity 43    
Precipitation  
Precipitation 0.00 in 0.13 in 1.92 in (2011)
Month to date precipitation 0.37 0.98  
Year to date precipitation 31.82 31.58  
Snow  
Snow 0.00 in 0.00 in 0.00 in (2015)
Month to date snowfall 0.0 0.0  
Since 1 July snowfall 0.0 0.0  
Since 1 September snowfall 0.0 0.0  
Snow Depth 0.00 in    
Sea Level Pressure  
Sea Level Pressure 30.32 in    
Wind  
Wind Speed 9 mph (NE)    
Max Wind Speed 17 mph    
Max Gust Speed 22 mph    
Visibility 10 miles    
Events      
T = Trace of Precipitation, MM = Missing Value Source: NWS Daily Summary

Daily Weather History Graph

Daily Weather History Graph

Search for Another Location

Airport or City:

Trip Planner

Search our weather history database for the weather conditions in past years. The results will help you decide how hot, cold, wet, or windy it might be!

Date:

Astronomy

Sep. 08, 2014 Rise Set
Actual Time 6:18 AM EDT 7:07 PM EDT
Civil Twilight 5:50 AM EDT 7:35 PM EDT
Nautical Twilight 5:17 AM EDT 8:08 PM EDT
Astronomical Twilight 4:42 AM EDT 8:43 PM EDT
Moon 6:45 PM EDT (9/8) 5:39 AM EDT (9/8)
Length of Visible Light 13h 44m
Length of Day
12h 48m
Full, 100% of the Moon is Illuminated
Sep 8
Full
Sep 8
Full
Sep 15
Last Quarter
Sep 24
New
Oct 1
First Quarter

Hourly Weather History & Observations

Time (EDT) Temp. Dew Point Humidity Pressure Visibility Wind Dir Wind Speed Gust Speed Precip Events Conditions
12:51 AM 62.1 °F 57.9 °F 86% 30.23 in 10.0 mi Calm Calm - N/A   Clear
1:51 AM 60.1 °F 57.0 °F 90% 30.24 in 10.0 mi Calm Calm - N/A   Clear
2:51 AM 60.1 °F 57.0 °F 90% 30.24 in 10.0 mi Calm Calm - N/A   Clear
3:51 AM 59.0 °F 55.9 °F 90% 30.25 in 10.0 mi Calm Calm - N/A   Clear
4:51 AM 59.0 °F 55.4 °F 88% 30.27 in 10.0 mi NNW 5.8 mph - N/A   Clear
5:51 AM 57.0 °F 53.1 °F 87% 30.28 in 10.0 mi North 9.2 mph - N/A   Scattered Clouds
6:51 AM 57.9 °F 53.1 °F 84% 30.31 in 10.0 mi North 5.8 mph - N/A   Scattered Clouds
7:51 AM 62.6 °F 55.4 °F 77% 30.32 in 10.0 mi NE 11.5 mph - N/A   Partly Cloudy
8:51 AM 66.9 °F 57.0 °F 70% 30.34 in 10.0 mi NE 11.5 mph - N/A   Partly Cloudy
9:51 AM 70.0 °F 57.0 °F 63% 30.35 in 10.0 mi NE 12.7 mph - N/A   Scattered Clouds
10:51 AM 73.0 °F 57.0 °F 57% 30.36 in 10.0 mi NE 16.1 mph - N/A   Scattered Clouds
11:51 AM 75.0 °F 54.0 °F 48% 30.35 in 10.0 mi NE 12.7 mph - N/A   Mostly Cloudy
12:51 PM 75.9 °F 53.1 °F 45% 30.37 in 10.0 mi ENE 10.4 mph - N/A   Mostly Cloudy
1:51 PM 75.9 °F 52.0 °F 43% 30.35 in 10.0 mi ENE 12.7 mph - N/A   Mostly Cloudy
2:51 PM 73.9 °F 53.1 °F 48% 30.36 in 10.0 mi ENE 10.4 mph - N/A   Mostly Cloudy
3:51 PM 73.0 °F 50.0 °F 44% 30.35 in 10.0 mi ENE 13.8 mph - N/A   Mostly Cloudy
4:51 PM 71.1 °F 51.1 °F 49% 30.36 in 10.0 mi NE 11.5 mph - N/A   Mostly Cloudy
5:51 PM 69.8 °F 48.2 °F 46% 30.35 in 10.0 mi ENE 13.8 mph - N/A   Mostly Cloudy
6:51 PM 66.9 °F 50.0 °F 54% 30.34 in 10.0 mi ENE 11.5 mph - N/A   Mostly Cloudy
7:51 PM 64.9 °F 51.1 °F 61% 30.35 in 10.0 mi ENE 10.4 mph - N/A   Mostly Cloudy
8:51 PM 64.0 °F 53.1 °F 67% 30.35 in 10.0 mi ENE 9.2 mph - N/A   Overcast
9:51 PM 62.1 °F 52.0 °F 70% 30.35 in 10.0 mi NE 10.4 mph - N/A   Overcast
10:51 PM 61.0 °F 52.0 °F 72% 30.35 in 10.0 mi NE 6.9 mph - N/A   Overcast
11:51 PM 61.0 °F 51.1 °F 70% 30.35 in 10.0 mi NE 6.9 mph - N/A   Mostly Cloudy